[[{"header":{"parameterUnit":"m.s-1","parameterCategory":1,"la1":30.2991,"la2":30.254,"lo1":-89.0895,"lo2":-89.0444,"dy":0.0017,"dx":0.0017,"nx":28,"ny":28,"refTime":"2024-09-02T03:00:00:Z","depth":0,"parameterNumber":2,"parameterNumberName":"U-component_of_WINDS"},"data":[0,0,0,0,0,0,0,0,0,0,0,0,0,0,0,0,0,0,0,0,0,0,0,0,0,0,0,0,0,0,0,0,0,0,0,0,0,0,0,0,0,0,0,0,0,0,0,0,0,0,0,0,0,0,0,0,0,0,-4.1446,-4.1447,0,-4.1523,-4.1524,-4.1525,-4.149,-4.1488,-4.1487,-4.1485,-4.1565,-4.1569,-4.1573,0,0,0,0,0,0,0,0,0,0,0,0,0,-4.1271,-4.1275,-4.1446,-4.1447,-4.1448,-4.1523,-4.1524,-4.1525,-4.1491,-4.1488,-4.1486,-4.1484,-4.1564,-4.1568,-4.1573,0,0,0,0,0,0,0,0,0,0,0,0,0,-4.1348,-4.1276,-4.1446,-4.144,-4.144,-4.1523,-4.1524,-4.1526,-4.1491,-4.1488,-4.1485,-4.1483,-4.1562,-4.1568,-4.1574,-4.1668,0,0,-4.1592,-4.1594,0,0,0,0,0,0,0,0,-4.1344,-4.1354,-4.144,-4.144,-4.1441,-4.1494,-4.1492,-4.1573,-4.1492,-4.1472,-4.1485,-4.1481,-4.1544,-4.1551,-4.1572,-4.1672,-4.1675,-4.1592,-4.1596,-4.1598,-4.16,0,0,0,0,0,0,0,-4.1338,-4.1351,-4.1477,-4.1441,-4.1442,-4.1434,-4.1442,-4.1507,-4.1523,-4.1473,-4.1471,-4.1481,-4.1544,-4.1566,-4.1574,-4.1676,-4.1592,-4.1597,-4.1601,-4.1603,-4.186,-4.1863,0,0,0,0,0,0,-4.1333,-4.1347,-4.1474,-4.1479,-4.1384,-4.144,-4.1448,-4.148,-4.1522,-4.1526,-4.1483,-4.1479,-4.1558,-4.1567,-4.1576,-4.1691,-4.1598,-4.1604,-4.1607,-4.1856,-4.186,-4.1864,0,0,0,0,0,0,-4.1329,-4.1344,-4.1471,-4.1412,-4.1428,-4.1446,-4.1482,-4.1483,-4.1506,-4.153,-4.1532,-4.1503,-4.1556,-4.1568,-4.1646,-4.1693,-4.1607,-4.1612,-4.1852,-4.1858,-4.1862,-4.1919,0,0,0,0,0,0,-4.1324,-4.1343,-4.1378,-4.1413,-4.1431,-4.1539,-4.1485,-4.1487,-4.1516,-4.1511,-4.1549,-4.1553,-4.1555,-4.1637,-4.1652,-4.1699,-4.1617,-4.1848,-4.1855,-4.186,-4.1913,-4.1925,-4.1936,0,0,0,0,0,-4.1318,-4.1391,-4.138,-4.1396,-4.1475,-4.1541,-4.1551,-4.1552,-4.152,-4.1556,-4.1572,-4.1552,-4.1686,-4.1645,-4.1661,-4.1712,-4.1845,-4.1853,-4.186,-4.1908,-4.1923,-4.1935,0,0,0,0,0,0,-4.1361,-4.1395,-4.1384,-4.147,-4.1503,-4.1535,-4.158,-4.1567,-4.161,-4.1604,-4.1603,-4.1612,-4.1692,-4.171,-4.1665,-4.1806,-4.1761,-4.1772,-4.1792,-4.1806,-4.1817,-4.1811,-4.1621,0,0,0,0,0,-4.138,-4.1431,-4.1458,-4.1532,-4.1549,-4.1562,-4.1591,-4.1588,-4.1623,-4.1636,-4.1658,-4.1692,-4.1742,-4.1775,-4.1822,-4.1916,-4.1924,-4.1958,-4.197,-4.1979,-4.1988,-4.2041,-4.2057,-4.1888,-4.1888,-4.1888,0,0,-4.1421,-4.1446,-4.1478,-4.1541,-4.1566,-4.1619,-4.1574,-4.1631,-4.1671,-4.1645,-4.172,-4.1737,-4.1776,-4.1863,-4.1902,-4.188,-4.2037,-4.1988,-4.1995,-4.2,-4.205,-4.2066,-4.208,-4.1893,-4.1892,-4.1891,0,0,-4.1522,-4.1546,-4.161,-4.1637,-4.1676,-4.1685,-4.1701,-4.1736,-4.1746,-4.1821,-4.1804,-4.1852,-4.1937,-4.1966,-4.1992,-4.2108,-4.2091,-4.2123,-4.2182,-4.2234,-4.2247,-4.2259,-4.2301,-4.2316,-4.2132,-4.2133,-4.2133,0,-4.1567,-4.1646,-4.1645,-4.1705,-4.1734,-4.1714,-4.178,-4.1806,-4.1859,-4.188,-4.1855,-4.1963,-4.1988,-4.2082,-4.211,-4.2132,-4.2151,-4.2118,-4.2245,-4.2257,-4.2268,-4.2308,-4.2324,-4.2136,-4.2136,-4.2135,-4.2135,0,-4.17,-4.1756,-4.1803,-4.1855,-4.189,-4.1953,-4.1963,-4.1998,-4.1994,-4.2005,-4.2084,-4.2113,-4.2167,-4.2189,-4.2185,-4.2283,-4.2269,-4.2244,-4.2198,-4.2288,-4.2326,-4.2341,-4.2141,-4.214,-4.2139,-4.2138,0,0,-4.1828,-4.1881,-4.1899,-4.1923,-4.1966,-4.2009,-4.2072,-4.2125,-4.2156,-4.2194,-4.2247,-4.2322,-4.23,-4.233,-4.2329,-4.2374,-4.2466,-4.2345,-4.2346,-4.2367,-4.2578,-4.2596,-4.2614,-4.2456,-4.2459,-4.2461,-4.2575,0,-4.1933,-4.2042,-4.2045,-4.2146,-4.2198,-4.2181,-4.2236,-4.2269,-4.2283,-4.233,-4.2345,-4.2398,-4.2365,-4.2383,-4.2427,-4.2445,-4.2508,-4.2437,-4.2507,-4.2509,-4.2497,-4.2634,-4.2652,-4.2758,-4.259,-4.2593,-4.2594,0,-4.2069,-4.2112,-4.2218,-4.2256,-4.2278,-4.2327,-4.2377,-4.2422,-4.246,-4.2467,-4.2502,-4.2495,-4.2561,-4.2514,-4.2606,-4.2557,-4.2586,-4.26,-4.2604,-4.261,-4.2557,-4.2644,-4.2792,-4.2808,-4.2618,-4.2616,-4.2614,0,-4.2153,-4.2237,-4.2312,-4.2333,-4.2379,-4.2415,-4.2435,-4.2471,-4.2503,-4.2547,-4.2569,-4.262,-4.2648,-4.2689,-4.2697,-4.2662,-4.279,-4.2743,-4.2798,-4.2798,-4.2825,-4.2823,-4.298,-4.2844,-4.2844,-4.2844,-4.2843,0,-4.2269,-4.2335,-4.235,-4.2396,-4.2471,-4.2474,-4.2548,-4.2566,-4.2598,-4.2649,-4.2638,-4.2685,-4.2693,-4.2743,-4.275,-4.2826,-4.2839,-4.2847,-4.2848,-4.2848,-4.2847,-4.2867,-4.286,-4.2848,-4.2847,-4.2846,-4.2845,0,-4.2374,-4.2387,-4.2468,-4.2506,-4.2517,-4.257,-4.2602,-4.2647,-4.2661,-4.2725,-4.274,-4.2762,-4.282,-4.2833,-4.2902,-4.2907,-4.2998,-4.2992,-4.2985,-4.2984,-4.3039,-4.3034,-4.3214,-4.3239,-4.3086,-4.3088,-4.3089,0,-4.2447,-4.2498,-4.2541,-4.2574,-4.2597,-4.265,-4.2684,-4.269,-4.2726,-4.2775,-4.2814,-4.2872,-4.2918,-4.3013,-4.3036,-4.309,-4.3085,-4.3144,-4.3093,-4.3092,-4.3087,-4.3084,-4.3089,-4.3154,-4.3156,-4.3157,-4.3158,0,-4.2576,-4.2581,-4.2629,-4.2681,-4.2721,-4.2762,-4.2801,-4.2829,-4.2841,-4.2882,-4.2942,-4.2978,-4.305,-4.3108,-4.3163,-4.3185,-4.3175,-4.3175,-4.319,-4.3191,-4.3185,-4.319,-4.3012,-4.317,-4.3169,-4.3168,-4.3167,-4.3167,-4.2668,-4.2713,-4.2751,-4.2806,-4.2837,-4.2874,-4.2919,-4.2939,-4.2989,-4.3047,-4.3049,-4.3115,-4.3155,-4.3227,-4.3253,-4.3306,-4.3287,-4.331,-4.3316,-4.3322,-4.3327,-4.3177,-4.3316,-4.3316,-4.3315,-4.3315,-4.3315,0,-4.2797,-4.2821,-4.2872,-4.2928,-4.2972,-4.2958,-4.3001,-4.3039,-4.3097,-4.3135,-4.3182,-4.3252,-4.3309,-4.3337,-4.3394,-4.3431,-4.3428,-4.3446,-4.3443,-4.3449,-4.334,-4.3321,-4.3448,-4.3447,-4.3447,-4.3447,-4.3447,-4.3447,-4.2869,-4.2945,-4.2954,-4.3046,-4.307,-4.3135,-4.3161,-4.3196,-4.3227,-4.3306,-4.3353,-4.3371,-4.3406,-4.3466,-4.3518,-4.3525,-4.3547,-4.3567,-4.3572,-4.347,-4.3456,-4.3443,-4.3425,-4.3572,-4.3572,-4.3677,-4.3678,-4.3678]},{"header":{"parameterUnit":"m.s-1","parameterCategory":1,"la1":30.2991,"la2":30.254,"lo1":-89.0895,"lo2":-89.0444,"dy":0.0017,"dx":0.0017,"nx":28,"ny":28,"refTime":"2024-09-02T03:00:00:Z","depth":0,"parameterNumber":3,"parameterNumberName":"V-component_of_WINDS"},"data":[0,0,0,0,0,0,0,0,0,0,0,0,0,0,0,0,0,0,0,0,0,0,0,0,0,0,0,0,0,0,0,0,0,0,0,0,0,0,0,0,0,0,0,0,0,0,0,0,0,0,0,0,0,0,0,0,0,0,-1.0105,-1.0104,0,-1.002,-1.0019,-1.0018,-0.9951,-0.995,-0.995,-0.9949,-0.9859,-0.9858,-0.9856,0,0,0,0,0,0,0,0,0,0,0,0,0,-1.0207,-1.0206,-1.0105,-1.0104,-1.0103,-1.002,-1.0019,-1.0017,-0.9951,-0.995,-0.995,-0.9949,-0.986,-0.9858,-0.9856,0,0,0,0,0,0,0,0,0,0,0,0,0,-1.0146,-1.0205,-1.0105,-1.006,-1.0055,-1.002,-1.0019,-1.0017,-0.9951,-0.995,-0.9949,-0.9949,-0.9861,-0.9858,-0.9855,-0.9858,0,0,-0.9847,-0.9846,0,0,0,0,0,0,0,0,-1.015,-1.0143,-1.0068,-1.0063,-1.0057,-0.9995,-1.0022,-0.9964,-0.9952,-0.9991,-0.9949,-0.9948,-0.9905,-0.9899,-0.9885,-0.9854,-0.985,-0.9847,-0.9845,-0.9844,-0.9843,0,0,0,0,0,0,0,-1.0154,-1.0146,-1.0071,-1.0067,-1.006,-1.0043,-1.0033,-1.001,-0.9954,-0.9987,-0.9982,-0.9973,-0.9902,-0.9888,-0.9882,-0.9849,-0.9847,-0.9845,-0.9843,-0.9842,-0.9814,-0.9815,0,0,0,0,0,0,-1.0166,-1.015,-1.0074,-1.0069,-1.0102,-1.0042,-1.0031,-1.0016,-0.9954,-0.9944,-0.9974,-0.997,-0.9893,-0.9885,-0.9879,-0.9877,-0.9844,-0.9842,-0.984,-0.9813,-0.9814,-0.9815,0,0,0,0,0,0,-1.0168,-1.016,-1.0077,-1.0108,-1.0096,-1.0041,-1.0025,-1.0015,-1.0,-0.9944,-0.9934,-0.997,-0.9892,-0.9883,-0.9864,-0.9873,-0.984,-0.9838,-0.9812,-0.9814,-0.9815,-0.9875,0,0,0,0,0,0,-1.0172,-1.0161,-1.0162,-1.0108,-1.0095,-1.0065,-1.0025,-1.0014,-0.9996,-0.999,-0.9937,-0.9928,-0.989,-0.9868,-0.9861,-0.9869,-0.9836,-0.9811,-0.9813,-0.9814,-0.9872,-0.9878,-0.9884,0,0,0,0,0,-1.0176,-1.0182,-1.0163,-1.0154,-1.0095,-1.0066,-1.0058,-1.0015,-0.9997,-0.9997,-0.9961,-0.9929,-0.9873,-0.9867,-0.9858,-0.9866,-0.981,-0.9812,-0.9814,-0.9869,-0.9877,-0.9884,0,0,0,0,0,0,-1.0238,-1.0175,-1.0152,-1.0142,-1.011,-1.0054,-1.0054,-1.0024,-0.9996,-0.9992,-0.9939,-0.9928,-0.9914,-0.9888,-0.9881,-0.9864,-0.9838,-0.9838,-0.9882,-0.9889,-0.9895,-0.9902,-0.9834,0,0,0,0,0,-1.0251,-1.0233,-1.0178,-1.0174,-1.0159,-1.011,-1.0095,-1.0065,-1.0029,-1.0015,-0.9977,-0.9943,-0.9917,-0.9902,-0.9875,-0.9867,-0.9855,-0.9868,-0.9874,-0.9879,-0.988,-0.9874,-0.9879,-0.9822,-0.9822,-0.9822,0,0,-1.0277,-1.024,-1.0232,-1.0186,-1.0158,-1.0139,-1.0098,-1.0081,-1.0067,-1.0012,-0.9992,-0.9963,-0.9921,-0.9908,-0.99,-0.9885,-0.9893,-0.9882,-0.9886,-0.9884,-0.9876,-0.9882,-0.9887,-0.9823,-0.9823,-0.9823,0,0,-1.0316,-1.0286,-1.028,-1.0252,-1.0209,-1.0176,-1.0174,-1.0123,-1.0102,-1.0081,-1.004,-1.0021,-0.9978,-0.995,-0.993,-0.9956,-0.9926,-0.9949,-0.998,-0.9974,-0.9979,-0.9982,-0.9992,-0.9996,-0.995,-0.995,-0.995,0,-1.0354,-1.0326,-1.028,-1.0265,-1.0246,-1.0195,-1.0188,-1.0162,-1.0113,-1.0101,-1.0085,-1.003,-0.9998,-0.9977,-0.9983,-0.9969,-0.9965,-0.9955,-0.9982,-0.9985,-0.9988,-0.9996,-1.0,-0.9953,-0.9953,-0.9953,-0.9952,0,-1.0374,-1.0355,-1.0354,-1.0309,-1.0289,-1.0278,-1.023,-1.0215,-1.0186,-1.0154,-1.0133,-1.0093,-1.0057,-1.0049,-1.0021,-1.0024,-1.0016,-0.9992,-0.9964,-0.9997,-1.0004,-1.0007,-0.9958,-0.9957,-0.9956,-0.9955,0,0,-1.0451,-1.038,-1.0381,-1.0359,-1.0308,-1.0292,-1.0277,-1.0243,-1.0231,-1.0198,-1.0185,-1.0149,-1.0126,-1.0103,-1.0071,-1.0066,-1.0089,-1.0041,-1.0039,-1.0052,-1.009,-1.0109,-1.0114,-1.0068,-1.0068,-1.0069,-1.0094,0,-1.0482,-1.0455,-1.0413,-1.04,-1.0381,-1.0332,-1.0319,-1.0286,-1.0255,-1.0234,-1.0199,-1.0175,-1.0146,-1.0132,-1.0125,-1.0088,-1.0096,-1.0085,-1.0054,-1.0054,-1.0067,-1.0118,-1.0138,-1.0164,-1.0096,-1.0096,-1.0097,0,-1.0515,-1.0485,-1.047,-1.042,-1.041,-1.04,-1.0365,-1.0345,-1.0306,-1.0283,-1.0258,-1.0222,-1.0204,-1.0178,-1.0151,-1.0145,-1.0129,-1.0109,-1.0109,-1.0105,-1.0078,-1.0115,-1.0171,-1.0175,-1.0101,-1.01,-1.01,0,-1.0573,-1.0529,-1.0515,-1.0498,-1.0438,-1.0432,-1.0407,-1.0366,-1.0348,-1.0317,-1.0304,-1.0271,-1.0252,-1.0227,-1.0183,-1.0168,-1.016,-1.0131,-1.0141,-1.0142,-1.0143,-1.0143,-1.0197,-1.0132,-1.0132,-1.0131,-1.0131,0,-1.0612,-1.0605,-1.054,-1.0531,-1.0521,-1.0472,-1.0463,-1.0433,-1.0397,-1.0381,-1.0336,-1.0321,-1.0263,-1.0241,-1.0207,-1.0189,-1.0181,-1.0162,-1.0153,-1.0167,-1.0169,-1.0157,-1.0154,-1.0132,-1.0132,-1.0132,-1.0132,0,-1.0676,-1.0632,-1.0613,-1.0559,-1.0544,-1.054,-1.0492,-1.0481,-1.0447,-1.0426,-1.0419,-1.0365,-1.0337,-1.029,-1.0248,-1.0225,-1.0214,-1.0198,-1.0228,-1.0223,-1.0235,-1.0235,-1.0283,-1.0287,-1.0219,-1.022,-1.0221,0,-1.0705,-1.0698,-1.0643,-1.0629,-1.0606,-1.0584,-1.0565,-1.0515,-1.0497,-1.0451,-1.0446,-1.0414,-1.0386,-1.0343,-1.03,-1.0267,-1.0251,-1.027,-1.0245,-1.0259,-1.0251,-1.0253,-1.0252,-1.0276,-1.0277,-1.0278,-1.0278,0,-1.076,-1.0738,-1.0714,-1.0681,-1.066,-1.0632,-1.0601,-1.0592,-1.0535,-1.0517,-1.0488,-1.0467,-1.0424,-1.0393,-1.0354,-1.0326,-1.0293,-1.0286,-1.0286,-1.0301,-1.0318,-1.0309,-1.0244,-1.0285,-1.0285,-1.0284,-1.0284,-1.0283,-1.0807,-1.0799,-1.0759,-1.0732,-1.0704,-1.0676,-1.0663,-1.0627,-1.0602,-1.0564,-1.0536,-1.0509,-1.0468,-1.0412,-1.0387,-1.0364,-1.0349,-1.035,-1.035,-1.0351,-1.0356,-1.0321,-1.0356,-1.0356,-1.0356,-1.0356,-1.0355,0,-1.0861,-1.0832,-1.0808,-1.0767,-1.0746,-1.0716,-1.068,-1.0664,-1.0641,-1.0606,-1.058,-1.0546,-1.0515,-1.047,-1.0435,-1.0426,-1.0409,-1.0418,-1.0419,-1.0413,-1.0372,-1.0375,-1.0432,-1.0432,-1.0432,-1.0432,-1.0432,-1.0432,-1.0886,-1.0871,-1.0844,-1.0813,-1.0784,-1.0758,-1.074,-1.0714,-1.0685,-1.065,-1.0625,-1.0595,-1.0555,-1.0517,-1.0487,-1.0474,-1.0464,-1.0478,-1.046,-1.0423,-1.0416,-1.0409,-1.0412,-1.0476,-1.0476,-1.0503,-1.0504,-1.0504]}]]